Hourly Weather Bolshie Ozerki

Today, 30 July, Friday

Time Temperature Precipitation Wind Pressure Humidity
00:00 +19°C° 0 mm 3 mps 737 mmHg 91%
01:00 +19°C° 0 mm 3 mps 737 mmHg 91%
02:00 +19°C° 0 mm 3 mps 737 mmHg 92%
03:00 +19°C° 0 mm 2 mps 737 mmHg 92%
04:00 +20°C° 0 mm 2 mps 737 mmHg 89%
05:00 +20°C° 0 mm 2 mps 737 mmHg 87%
06:00 +22°C° 0 mm 1 mps 737 mmHg 85%
07:00 +24°C° 0 mm 2 mps 737 mmHg 77%
08:00 +25°C° 0 mm 2 mps 737 mmHg 69%
09:00 +27°C° 0 mm 3 mps 738 mmHg 61%
10:00 +29°C° 0 mm 3 mps 738 mmHg 55%
11:00 +30°C° 0 mm 3 mps 738 mmHg 48%
12:00 +33°C° 0 mm 4 mps 738 mmHg 41%
13:00 +31°C° 0 mm 3 mps 737 mmHg 42%
14:00 +31°C° 0 mm 3 mps 737 mmHg 43%
15:00 +32°C° 0 mm 4 mps 737 mmHg 43%
16:00 +28°C° 0.3 mm 3 mps 737 mmHg 54%
17:00 +26°C° 0.3 mm 3 mps 737 mmHg 64%
18:00 +22°C° 0.3 mm 3 mps 736 mmHg 75%
19:00 +23°C° 0.5 mm 2 mps 736 mmHg 74%
20:00 +23°C° 0.5 mm 2 mps 736 mmHg 73%
21:00 +22°C° 0.5 mm 1 mps 736 mmHg 72%
22:00 +21°C° 0.2 mm 2 mps 736 mmHg 77%
23:00 +20°C° 0.2 mm 3 mps 736 mmHg 82%

Tomorrow, 31 July, Saturday

Time Temperature Precipitation Wind Pressure Humidity
00:00 +20°C° 0.2 mm 3 mps 736 mmHg 87%
01:00 +20°C° 0.1 mm 3 mps 736 mmHg 88%
02:00 +19°C° 0.1 mm 3 mps 736 mmHg 90%
03:00 +19°C° 0.1 mm 3 mps 736 mmHg 91%
04:00 +20°C° 0 mm 3 mps 736 mmHg 90%
05:00 +20°C° 0 mm 3 mps 736 mmHg 89%
06:00 +21°C° 0 mm 3 mps 736 mmHg 88%
07:00 +22°C° 0 mm 4 mps 736 mmHg 82%
08:00 +25°C° 0 mm 4 mps 737 mmHg 77%
09:00 +26°C° 0 mm 5 mps 737 mmHg 71%
10:00 +27°C° 0 mm 5 mps 737 mmHg 64%
11:00 +29°C° 0 mm 6 mps 737 mmHg 57%
12:00 +30°C° 0 mm 6 mps 737 mmHg 50%
13:00 +30°C° 0 mm 6 mps 737 mmHg 47%
14:00 +30°C° 0 mm 6 mps 737 mmHg 45%
15:00 +32°C° 0 mm 6 mps 738 mmHg 42%
16:00 +30°C° 0 mm 5 mps 738 mmHg 44%
17:00 +29°C° 0 mm 5 mps 738 mmHg 46%
18:00 +28°C° 0 mm 4 mps 738 mmHg 49%
19:00 +27°C° 0 mm 3 mps 739 mmHg 51%
20:00 +26°C° 0 mm 3 mps 739 mmHg 54%
21:00 +25°C° 0 mm 2 mps 739 mmHg 56%
22:00 +24°C° 0 mm 2 mps 740 mmHg 58%
23:00 +23°C° 0 mm 1 mps 740 mmHg 60%

Day after tomorrow, 1 August, Sunday

Time Temperature Precipitation Wind Pressure Humidity
00:00 +22°C° 0 mm 1 mps 740 mmHg 61%
01:00 +21°C° 0 mm 1 mps 740 mmHg 62%
02:00 +21°C° 0 mm 1 mps 740 mmHg 62%
03:00 +21°C° 0 mm 1 mps 741 mmHg 63%
04:00 +20°C° 0 mm 2 mps 741 mmHg 63%
05:00 +21°C° 0 mm 2 mps 741 mmHg 63%
06:00 +23°C° 0 mm 2 mps 742 mmHg 63%
07:00 +25°C° 0 mm 2 mps 742 mmHg 56%
08:00 +27°C° 0 mm 3 mps 742 mmHg 49%
09:00 +29°C° 0 mm 3 mps 742 mmHg 42%
10:00 +30°C° 0 mm 3 mps 742 mmHg 39%
11:00 +32°C° 0 mm 4 mps 742 mmHg 36%
12:00 +33°C° 0 mm 4 mps 742 mmHg 32%
13:00 +33°C° 0 mm 4 mps 742 mmHg 31%
14:00 +34°C° 0 mm 4 mps 742 mmHg 31%
15:00 +34°C° 0 mm 4 mps 742 mmHg 30%
16:00 +33°C° 0 mm 3 mps 742 mmHg 34%
17:00 +31°C° 0 mm 3 mps 742 mmHg 37%
18:00 +31°C° 0 mm 3 mps 742 mmHg 41%
19:00 +29°C° 0 mm 2 mps 742 mmHg 46%
20:00 +27°C° 0 mm 2 mps 742 mmHg 51%
21:00 +25°C° 0 mm 2 mps 742 mmHg 56%
22:00 +24°C° 0 mm 2 mps 742 mmHg 57%
23:00 +24°C° 0 mm 1 mps 742 mmHg 58%

2 August, Monday

Time Temperature Precipitation Wind Pressure Humidity
00:00 +23°C° 0 mm 1 mps 742 mmHg 58%
01:00 +23°C° 0 mm 1 mps 742 mmHg 58%
02:00 +23°C° 0 mm 1 mps 742 mmHg 58%
03:00 +23°C° 0 mm 2 mps 742 mmHg 58%
04:00 +23°C° 0 mm 1 mps 742 mmHg 57%
05:00 +24°C° 0 mm 1 mps 742 mmHg 57%
06:00 +25°C° 0 mm 1 mps 742 mmHg 56%
07:00 +27°C° 0 mm 2 mps 742 mmHg 50%
08:00 +29°C° 0 mm 2 mps 742 mmHg 44%
09:00 +31°C° 0 mm 3 mps 742 mmHg 37%
10:00 +33°C° 0 mm 3 mps 742 mmHg 35%
11:00 +35°C° 0 mm 3 mps 742 mmHg 32%
12:00 +36°C° 0 mm 3 mps 742 mmHg 30%
13:00 +36°C° 0 mm 3 mps 741 mmHg 28%
14:00 +37°C° 0 mm 3 mps 741 mmHg 26%
15:00 +37°C° 0 mm 3 mps 741 mmHg 24%
16:00 +36°C° 0 mm 3 mps 740 mmHg 26%
17:00 +35°C° 0 mm 3 mps 740 mmHg 28%
18:00 +32°C° 0 mm 2 mps 740 mmHg 30%
19:00 +30°C° 0 mm 2 mps 740 mmHg 34%
20:00 +28°C° 0 mm 2 mps 740 mmHg 39%
21:00 +26°C° 0 mm 2 mps 740 mmHg 44%
22:00 +26°C° 0 mm 3 mps 740 mmHg 44%
23:00 +25°C° 0 mm 3 mps 739 mmHg 44%

3 August, Tuesday

Time Temperature Precipitation Wind Pressure Humidity
00:00 +25°C° 0 mm 3 mps 739 mmHg 44%
01:00 +25°C° 0 mm 2 mps 739 mmHg 43%
02:00 +25°C° 0 mm 2 mps 739 mmHg 42%
03:00 +25°C° 0 mm 2 mps 739 mmHg 42%
04:00 +25°C° 0 mm 2 mps 739 mmHg 43%
05:00 +25°C° 0 mm 2 mps 739 mmHg 44%
06:00 +26°C° 0 mm 3 mps 739 mmHg 45%
07:00 +28°C° 0 mm 3 mps 739 mmHg 41%
08:00 +29°C° 0 mm 3 mps 739 mmHg 37%
09:00 +32°C° 0 mm 4 mps 739 mmHg 33%
10:00 +34°C° 0 mm 4 mps 739 mmHg 29%
11:00 +36°C° 0 mm 5 mps 739 mmHg 25%
12:00 +39°C° 0 mm 6 mps 738 mmHg 21%
13:00 +38°C° 0 mm 6 mps 738 mmHg 27%
14:00 +35°C° 0 mm 5 mps 738 mmHg 34%
15:00 +33°C° 0 mm 5 mps 738 mmHg 40%
16:00 +30°C° 1.7 mm 4 mps 738 mmHg 52%
17:00 +27°C° 1.7 mm 4 mps 738 mmHg 63%
18:00 +25°C° 1.7 mm 4 mps 738 mmHg 75%
19:00 +24°C° 0 mm 3 mps 738 mmHg 75%
20:00 +22°C° 0 mm 3 mps 738 mmHg 74%
21:00 +22°C° 0 mm 3 mps 738 mmHg 74%
22:00 +21°C° 0 mm 3 mps 738 mmHg 72%
23:00 +21°C° 0 mm 3 mps 738 mmHg 70%

4 August, Wednesday

Time Temperature Precipitation Wind Pressure Humidity
00:00 +21°C° 0 mm 3 mps 738 mmHg 68%
01:00 +21°C° 0 mm 4 mps 738 mmHg 70%
02:00 +21°C° 0 mm 4 mps 738 mmHg 72%
03:00 +20°C° 0 mm 5 mps 738 mmHg 74%
04:00 +21°C° 0.1 mm 4 mps 738 mmHg 74%
05:00 +21°C° 0.1 mm 3 mps 738 mmHg 74%
06:00 +21°C° 0.1 mm 2 mps 738 mmHg 75%
07:00 +22°C° 0.1 mm 3 mps 739 mmHg 71%
08:00 +24°C° 0.1 mm 3 mps 739 mmHg 68%
09:00 +25°C° 0.1 mm 3 mps 739 mmHg 65%
10:00 +27°C° 0 mm 3 mps 739 mmHg 59%
11:00 +28°C° 0 mm 3 mps 739 mmHg 54%
12:00 +29°C° 0 mm 3 mps 739 mmHg 49%
13:00 +29°C° 0.1 mm 4 mps 739 mmHg 49%
14:00 +29°C° 0.1 mm 4 mps 740 mmHg 49%
15:00 +29°C° 0.1 mm 4 mps 740 mmHg 49%
16:00 +28°C° 0 mm 5 mps 740 mmHg 50%
17:00 +27°C° 0 mm 5 mps 740 mmHg 51%
18:00 +26°C° 0 mm 5 mps 740 mmHg 52%
19:00 +25°C° 0 mm 5 mps 740 mmHg 57%
20:00 +22°C° 0 mm 5 mps 741 mmHg 62%
21:00 +21°C° 0 mm 4 mps 741 mmHg 67%
22:00 +20°C° 0 mm 4 mps 741 mmHg 71%
23:00 +19°C° 0 mm 3 mps 741 mmHg 74%
Show more

We Need Your Consent

Meteoprog and our Service Providers may store and access personal data such as cookies, device identifiers or other similar technologies on your device and process such data to personalise content and ads, as well as provide social media features and to analyse the traffic.

  • Store and/or access information on your device

    Cookies, device identifiers or other information can be stored or accessed on your device for the purposes indicated above.

  • Personalised ads and content, ad and content measurement, audience insights, and products development

    Ads and content can be personalised based on a profile. More data can be added to better personalise ads and content. Ad and content performance can be measured. Insights about the audience who saw the ads and content can be derived. Such data can be used to develop or improve user’s experience, systems and software.

By clicking ‘I Agree’ you will allow the use of indicated cookies, device identifiers, web beacons or other similar technologies. Your settings can be changed in the browser on your device.

For certain purposes, legitimate interests may be relied on, rather than consent. You can read more about this in our Privacy and Cookie Policy.